Regional Weather Roundup
Issued by NWS

Home | Current Version | Previous Version | Graphics & Text | Print | Product List | Glossary On
Versions: 1 2 3 4 5 6 7 8 9 10 11 12 13 14 15 16 17 18 19 20 21 22 23 24 25 26 27 28 29 30 31 32 33 34 35 36 37 38 39 40 41 42 43 44 45 46 47 48 49 50
000
ASUS43 KBIS 230002
RWRND

NORTH DAKOTA REGIONAL WEATHER ROUNDUP
NATIONAL WEATHER SERVICE BISMARCK ND
600 PM CST WED FEB 22 2017

NOTE: "FAIR" INDICATES FEW OR NO CLOUDS BELOW 12,000 FEET WITH NO
SIGNIFICANT WEATHER AND/OR OBSTRUCTIONS TO VISIBILITY.


NDZ001>003-009>011-017-230100-
NORTHWEST NORTH DAKOTA

CITY           SKY/WX    TMP DP  RH WIND       PRES   REMARKS
WILLISTON      CLOUDY    32  26  78 N7        29.97R
6HR MIN TEMP:  31; 6HR MAX TEMP:  34;

MINOT          FAIR      33  25  72 NW9       29.94R
MINOT AFB      PTCLDY    31  26  79 NW9       29.93R
$$

NDZ018>021-031>035-040>046-230100-
SOUTHWEST NORTH DAKOTA

CITY           SKY/WX    TMP DP  RH WIND       PRES   REMARKS
BISMARCK       CLOUDY    34  30  85 NE8       29.92R
6HR MIN TEMP:  34; 6HR MAX TEMP:  35; 6HR PCP:  0.04;

DICKINSON      CLOUDY    29  25  85 N9        29.90R
GARRISON         N/A     31  27  85 NW8       29.92R
6HR MIN TEMP:  30; 6HR MAX TEMP:  32;

HETTINGER ARPT CLOUDY    31  27  85 N13       29.91R
$$

NDZ004>008-012>016-024-026-027-054-230100-
NORTHEAST NORTH DAKOTA

CITY           SKY/WX    TMP DP  RH WIND       PRES   REMARKS
GRAND FORKS    CLOUDY    34  25  69 N10       29.87R
GRND FRKS AFB  CLEAR     33  27  79 N10       29.88R
DEVILS LAKE    FAIR      31  26  82 NW10      29.91R
$$

NDZ022-023-025-028>030-036>039-047>053-230100-
SOUTHEAST NORTH DAKOTA

CITY           SKY/WX    TMP DP  RH WIND       PRES   REMARKS
FARGO          CLOUDY    34  30  85 N15       29.83R
6HR MIN TEMP:  33; 6HR MAX TEMP:  36; 6HR PCP:  0.15;

JAMESTOWN      CLOUDY    31  26  82 N18       29.87R WCI  19
$$




USA.gov is the U.S. government's official web portal to all federal, state and local government web resources and services.